Osoyoos, British Columbia

5:51 AM PDT on October 22, 2017 (GMT -0700)
Osoyoos

Weather History for CWYY - March, 2013

Change the Weather History Date:

Wednesday, March 13, 2013

  Actual Average (KOMK) Record (KOMK)
Temperature  
Mean Temperature 52 °F 40 °F  
Max Temperature 64 °F 51 °F 67 °F (1934)
Min Temperature 40 °F 30 °F 9 °F (1969)
Degree Days  
Heating Degree Days 13 25  
Month to date heating degree days 351  
Since 1 July heating degree days 5212  
Cooling Degree Days 0 0  
Month to date cooling degree days 0  
Year to date cooling degree days 0  
Growing Degree Days 2 (Base 50)    
Moisture  
Dew Point 40 °F    
Average Humidity 55    
Maximum Humidity 83    
Minimum Humidity 32    
Precipitation  
Precipitation 0.00 in 0.04 in 0.78 in (2011)
Month to date precipitation 0.57  
Year to date precipitation 3.87  
Sea Level Pressure  
Sea Level Pressure 30.04 in    
Wind  
Wind Speed 6 mph ()    
Max Wind Speed 14 mph    
Max Gust Speed 22 mph    
T = Trace of Precipitation, MM = Missing Value Source: Averaged Metar Reports

Daily Weather History Graph

Daily Weather History Graph

Search for Another Location

Airport or City:

Trip Planner

Search our weather history database for the weather conditions in past years. The results will help you decide how hot, cold, wet, or windy it might be!

Date:

Astronomy

Mar. 13, 2013 Rise Set
Actual Time 7:14 AM PDT 7:00 PM PDT
Civil Twilight 6:43 AM PDT 7:32 PM PDT
Nautical Twilight 6:06 AM PDT 8:08 PM PDT
Astronomical Twilight 5:28 AM PDT 8:46 PM PDT
Moon 7:43 AM PDT (3/13) 9:38 PM PDT (3/13)
Length of Visible Light 12h 48m
Length of Day
11h 45m
Waxing Crescent, 4% of the Moon is Illuminated
Mar 13
Waxing Crescent
Mar 19
First Quarter
Mar 27
Full
Apr 2
Last Quarter
Apr 10
New

Hourly Weather History & Observations

Time (PDT) Temp. Windchill Dew Point Humidity Pressure Visibility Wind Dir Wind Speed Gust Speed Precip Events Conditions
1:00 AM 54.5 °F - 38.1 °F 54% 29.94 in - SE 8.1 mph - N/A   Unknown
3:00 AM 52.0 °F - 38.3 °F 60% 29.97 in - SE 5.8 mph - N/A   Unknown
4:00 AM 52.0 °F - 37.8 °F 58% 29.98 in - ESE 6.9 mph - N/A   Unknown
5:00 AM 48 °F - 39 °F 61% 30.01 in - SW 2.3 mph - -  
6:00 AM 45.1 °F 43.7 °F 38.1 °F 76% 30.03 in - South 3.5 mph - N/A   Unknown
7:00 AM 43.3 °F 41.7 °F 36.1 °F 76% 30.03 in - SSE 3.5 mph - N/A   Unknown
8:00 AM 41.4 °F - 36.5 °F 83% 30.06 in - SE 1.2 mph - N/A   Unknown
9:00 AM 48.4 °F - 39.4 °F 71% 30.07 in - SSE 2.3 mph - N/A   Unknown
10:00 AM 52.3 °F - 39.7 °F 62% 30.07 in - South 5.8 mph - N/A   Unknown
11:00 AM 55 °F - 40 °F 45% 30.07 in - SSE 6.9 mph - -  
11:00 AM 55.4 °F - 39.6 °F 55% 30.07 in - SSE 6.9 mph - N/A   Unknown
12:00 PM 57.6 °F - 39.4 °F 51% 30.07 in - South 8.1 mph - N/A   Unknown
1:00 PM 59.7 °F - 40.1 °F 48% 30.06 in - South 8.1 mph - N/A   Unknown
2:00 PM 60.4 °F - 40.3 °F 47% 30.06 in - South 10.4 mph - N/A   Unknown
3:00 PM 61.7 °F - 40.1 °F 45% 30.04 in - South 13.8 mph 20.7 mph N/A   Unknown
4:00 PM 64.2 °F - 41.7 °F 44% 30.03 in - SSE 13.8 mph 21.9 mph N/A   Unknown
5:00 PM 64 °F - 42 °F 32% 30.04 in - SE 11.5 mph - -  
5:00 PM 63.5 °F - 41.5 °F 45% 30.04 in - SE 11.5 mph 18.4 mph N/A   Unknown
6:00 PM 62.4 °F - 41.5 °F 46% 30.04 in - SSE 8.1 mph - N/A   Unknown
7:00 PM 61.0 °F - 41.2 °F 48% 30.04 in - SE 10.4 mph - N/A   Unknown
8:00 PM 60.6 °F - 41.4 °F 49% 30.03 in - South 9.2 mph - N/A   Unknown
9:00 PM 59.7 °F - 41.4 °F 51% 30.03 in - SSE 3.5 mph - N/A   Unknown
10:00 PM 58.3 °F - 42.8 °F 56% 30.04 in - SSE 9.2 mph - N/A   Unknown
11:00 PM 53 °F - 42 °F 56% 30.05 in - South 5.8 mph - -  
11:00 PM 53.1 °F - 41.7 °F 65% 30.05 in - South 5.8 mph - N/A   Unknown